Home > Time Zones > World Clock > Weather > Russia > Perm > Past weeks

Flag for Russia Weather past 2 weeks in Perm, Russia

Now
46 °F

Broken clouds.


Feels Like: 41 °F
Forecast: 42 / 48 °F
Wind: 10 mph from Southwest

Location: Perm'/Bolshoe Savino

Current Time: Sep 30, 2014 at 12:25:25 PM

Latest Report: Sep 30, 2014 at 11:30 AM


Visibility: N/A

Pressure: 29.74 "Hg

Humidity: 93%

Dew point: 45 °F

Location of PermLocation

Historic Weather in Perm — Graph

°F

Perm temperature yesterday

Maximum temperature yesterday: 57 °F (at 3:00 PM)
Minimum temperature yesterday: 41 °F (at 11:00 PM)
Average temperature yesterday: 49 °F

Past Weeks' High & Low Weather Summary

 TemperatureHumidityPressure
High68 °F (Sep 23, 2:30 PM)100% (Sep 16, 7:00 AM)30.18 "Hg (Sep 16, 7:00 AM)
Low34 °F (Sep 18, 4:30 AM)32% (Sep 25, 2:00 PM)29.71 "Hg (Sep 16, 1:30 PM)
Average48 °F78%30.01 "Hg
* Reported Sep 15 11:00 AM — Sep 30 11:00 AM, Perm, Weather by CustomWeather, © 2014

Note: Actual official high and low records may vary slightly from our data, if they occured in-between our weather recording intervals... More about our weather records

Advertising

Perm weather history for previous 24 hours

 ConditionsComfort  
Time TempWeatherWind HumidityBarometerVisibility
11:00 AM
Sep 30
45 °FBroken clouds.3 mph100%29.74 "HgN/A
10:30 AM41 °FFog.3 mph100%29.74 "Hg3 mi
10:00 AM37 °FFog.3 mph100%29.74 "Hg2 mi
9:30 AM36 °FPartly sunny.3 mph100%29.77 "Hg4 mi
9:00 AM36 °FBroken clouds.3 mph100%29.77 "Hg4 mi
8:30 AM36 °FBroken clouds.1 mph100%29.77 "Hg6 mi
8:00 AM36 °FFog.No wind100%29.77 "Hg3 mi
7:30 AM36 °FFog.No wind100%29.77 "Hg2 mi
7:00 AM37 °FFog.1 mph100%29.77 "Hg2 mi
6:30 AM37 °FFog.3 mph100%29.77 "Hg2 mi
6:00 AM37 °FFog.8 mph100%29.80 "Hg3 mi
5:30 AM37 °FFog.8 mph100%29.80 "Hg2 mi
5:00 AM39 °FFog.8 mph93%29.80 "Hg2 mi
4:30 AM37 °FFog.8 mph100%29.80 "Hg3 mi
4:00 AM37 °FFog.8 mph100%29.80 "Hg3 mi
3:30 AM37 °FFog.8 mph100%29.83 "Hg3 mi
3:00 AM37 °FFog.8 mph100%29.83 "Hg3 mi
2:30 AM37 °FClear.8 mph100%29.83 "Hg4 mi
2:00 AM39 °FPassing clouds.8 mph93%29.83 "Hg4 mi
1:30 AM39 °FPassing clouds.6 mph100%29.83 "Hg6 mi
1:00 AM41 °FPartly cloudy.3 mph100%29.83 "Hg4 mi
12:30 AM41 °FPartly cloudy.3 mph100%29.83 "HgN/A
12:00 AM41 °FPassing clouds.3 mph100%29.83 "Hg5 mi
11:30 PM
Sep 29
41 °FPartly cloudy.6 mph100%29.83 "Hg6 mi
11:00 PM41 °FPartly cloudy.6 mph100%29.83 "Hg5 mi
10:30 PM43 °FPartly cloudy.6 mph93%29.86 "Hg6 mi
10:00 PM45 °FPartly cloudy.6 mph93%29.83 "HgN/A
9:30 PM45 °FPassing clouds.6 mph93%29.83 "HgN/A
9:00 PM46 °FSprinkles. Passing clouds.6 mph93%29.83 "HgN/A
8:30 PM46 °FSprinkles. Mostly cloudy.6 mph93%29.83 "Hg3 mi
8:00 PM46 °FSprinkles. Mostly cloudy.No wind93%29.83 "Hg2 mi
7:30 PM46 °FSprinkles. Mostly cloudy.3 mph93%29.83 "Hg4 mi
7:00 PM46 °FSprinkles. Mostly cloudy.6 mph93%29.83 "Hg3 mi
6:30 PM46 °FSprinkles. Mostly cloudy.8 mph93%29.83 "Hg4 mi
6:00 PM50 °FSprinkles. Mostly cloudy.13 mph82%29.83 "Hg1 mi
5:30 PM54 °FPartly sunny.10 mph58%29.83 "HgN/A
5:00 PM54 °FPartly sunny.8 mph54%29.80 "HgN/A
4:30 PM54 °FPartly sunny.8 mph63%29.80 "HgN/A
4:00 PM57 °FPartly sunny.13 mph51%29.80 "HgN/A
3:30 PM57 °FPartly sunny.15 mph55%29.83 "HgN/A
3:00 PM57 °FPartly sunny.10 mph55%29.83 "HgN/A
2:30 PM54 °FPartly sunny.10 mph63%29.83 "HgN/A
2:00 PM54 °FBroken clouds.10 mph63%29.83 "HgN/A
1:30 PM55 °FBroken clouds.10 mph67%29.83 "HgN/A
1:00 PM54 °FBroken clouds.8 mph72%29.83 "HgN/A
12:30 PM52 °FPartly sunny.10 mph77%29.83 "HgN/A
12:00 PM50 °FPartly sunny.10 mph82%29.83 "HgN/A
Weather by CustomWeather, © 2014

See weather overviewHow to use our weather pages